Regional Weather Roundup
Issued by NWS

Home | Current Version | Previous Version | Text Only | Print | Product List | Glossary Off
Versions: 1 2 3 4 5 6 7 8 9 10 11 12 13 14 15 16 17 18 19 20 21 22 23 24 25 26 27 28 29 30 31 32 33 34 35 36 37 38 39 40 41 42 43 44 45 46 47 48 49 50

000
ASUS43 KFSD 272202
RWRSD

WEATHER ROUNDUP FOR SOUTH DAKOTA
NATIONAL WEATHER SERVICE SIOUX FALLS SD
500 PM CDT MON MAR 27 2017

NOTE: "FAIR" INDICATES FEW OR NO CLOUDS BELOW 12,000 FEET WITH NO
SIGNIFICANT WEATHER AND/OR OBSTRUCTIONS TO VISIBILITY.


SDZ001>005-009-010-012>017-272300-
NORTHWEST AND NORTH CENTRAL SOUTH DAKOTA

CITY           SKY/WX    TMP DP  RH WIND       PRES   REMARKS
BUFFALO          N/A     61  27  27 S10       29.78S
FAITH            N/A     57  39  51 MISG      29.87S
MOBRIDGE       PTSUNNY   63  34  33 S10       29.87S
$$

SDZ012>016-024>037-041>051-057-063-072>074-272300-
SOUTHWEST AND SOUTH CENTRAL SOUTH DAKOTA

CITY           SKY/WX    TMP DP  RH WIND       PRES   REMARKS
RAPID CTY ARPT PTSUNNY   60  37  42 SE16      29.83S
PIERRE         MOSUNNY   59  30  33 SE8       29.88S
CUSTER         CLOUDY    48  34  58 E10       29.85R
ELLSWORTH AFB  SUNNY     59  36  41 CALM      29.83S
PHILIP         SUNNY     64  36  35 E15       29.84S
PINE RIDGE     CLOUDY    63  32  31 CALM      29.80S
SPEARFISH      FAIR      55  37  50 SE15G21   29.84S
WINNER         FAIR      64  38  38 SE6       29.87F
$$

SDZ004>011-016>023-039-040-272300-
NORTHEAST SOUTH DAKOTA

CITY           SKY/WX    TMP DP  RH WIND       PRES   REMARKS
ABERDEEN       SUNNY     59  31  34 E7        29.92S
WATERTOWN      CLOUDY    55  33  43 E6        29.93R
BROOKINGS      PTSUNNY   57  35  43 CALM        N/A
SISSETON         N/A     57  38  48 VRB3      29.94S
$$

SDZ017-020-022-023-036>040-048>070-272300-
SOUTHEAST SOUTH DAKOTA

CITY           SKY/WX    TMP DP  RH WIND       PRES   REMARKS
SIOUX FALLS    MOSUNNY   59  37  44 E3        29.92F
HURON          CLOUDY    59  34  39 CALM      29.91F
MITCHELL       SUNNY     60  35  39 SE3       29.92F
YANKTON        SUNNY     55  37  50 CALM      29.92F
$$

ABBREVIATIONS USED IN REMARKS
   TC - TEMPERATURE IN CELSIUS
  WCI - WIND CHILL INDEX
   HX - HEAT INDEX
  VSB - VISIBILITY





USA.gov is the U.S. government's official web portal to all federal, state and local government web resources and services.